weather.gov     
National Weather Service

Regional Weather Roundup
NWS Homepage
This page is being discontinued on March 12, 2014.
The same data is available at this site. Please update your bookmarks.
Thank you, and we apologize for the inconvenience.
Please send an email to SR-SRH.Webmaster@noaa.gov with any concerns.


Current Version
Previous Version:    01  02  03  04  05  06  07  08  09  10  11  12  13  14  15  16  17  18  19  20  21  22  23  24  25  26  27  
[Printable]
056
ASUS42 KTBW 252210
RWRFL
FLORIDA REGIONAL WEATHER ROUNDUP
NATIONAL WEATHER SERVICE TAMPA BAY RUSKIN FL
500 PM EST SUN JAN 25 2015

NOTE: "FAIR" INDICATES FEW OR NO CLOUDS BELOW 12,000 FEET WITH NO
SIGNIFICANT WEATHER AND/OR OBSTRUCTIONS TO VISIBILITY.


FLZ001>010-012>015-112-114-115-252300-
PANHANDLE FLORIDA

CITY           SKY/WX    TMP DP  RH WIND       PRES   REMARKS
PENSACOLA      SUNNY     60  46  59 SW22G33   29.88F
PENSACOLA NAS  MOSUNNY   60  50  69 SW17G36   29.88F
MILTON NAS     MOSUNNY   61  45  55 SW20G25   29.87S
CRESTVIEW      SUNNY     61  44  53 SW22G30   29.88F
VALPARAISO     MOSUNNY   61  49  65 SW16G25   29.89F
MARY ESTHER    SUNNY     61  47  61 SW13G21   29.89F
TRI COUNTY     FAIR      61  40  45 SW13G26   29.88F
PANAMA CITY    FAIR      62  49  62 SW17G30   29.89F
TYNDALL AFB    FAIR      63  52  67 SW13G21   29.93F
APALACHICOLA   MOSUNNY   62  50  64 S8        29.95S

STATION/POSITION SKY/WX   TEMP    WIND        PRES    WAVE   SWELL
                          AIR SEA DIR/SP/G            HT/PER HT/PER
                          (F)     (DEG/KT/KT) (MB)    (FT/S) (FT/S)
30.1N   87.6W              61 62  230/ 23/ 29 1011.6F   4/ 5
29.2N   88.2W              63 71  250/ 27/ 31 1014.4F   5/ 4
28.7N   86.0W              65 70  250/ 16/ 17 1015.0R   3/ 5   2/10
PANAMA CITY BEAC           62 62  250/ 21/ 24 1012.7F
CAPE SAN BLAS    NOT AVBL
TOWER C                    62     260/ 17/ 18 1014.2R
28.5N   84.5W              65 69  250/ 14/ 19 1014.9R   3/ 9   2/ 9

$$
FLZ011-016>038-118-127-128-134-139-239-252300-
NORTH FLORIDA

CITY           SKY/WX    TMP DP  RH WIND       PRES   REMARKS
MARIANNA       SUNNY     62  42  47 SW21G31   29.87F
TALLAHASSEE    MOSUNNY   62  40  44 S12       29.91F
PERRY          SUNNY     57  41  55 SW12      29.96S
CROSS CITY       N/A     58  43  57 S9        29.97R
LAKE CITY      FAIR      61  37  41 SW12      29.94S
GAINESVILLE    SUNNY     61  39  44 W10       29.95S
MAYPORT NAS    MOSUNNY   62  32  32 SW10      29.92F
JACKSONVILLE   PTSUNNY   61  32  33 SW12      29.92S
JAX NAS        MOSUNNY   65  30  27 SW13      29.94S
JAX CRAIG      SUNNY     62  33  33 SW12      29.93F
JAX CECIL      SUNNY     61  32  33 SW7       29.93F
FERNANDINA BEA FAIR      66  32  28 SW8       29.91S
ST AUGUSTINE   SUNNY     62  33  33 SW8       29.95S

STATION/POSITION SKY/WX   TEMP    WIND        PRES    WAVE   SWELL
                          AIR SEA DIR/SP/G            HT/PER HT/PER
                          (F)     (DEG/KT/KT) (MB)    (FT/S) (FT/S)
SHELL POINT                57     190/ 10/ 15   N/A
KEATON BEACH               56     190/ 12/ 14 1014.8F
CEDAR KEY                  54     190/  7/  8 1015.8F
FERNANDINA                 61 57  220/ 10/ 11 1012.5S
30.7N   81.3W                 58                N/A     2/ 3
MAYPORT                    61 59  230/  9/ 12   N/A
31.4N   80.9W              53 55  180/ 12/ 14 1012.9F   1/ 3
ST AUGUSTINE               56     160/ 10/ 11 1014.4F

$$
FLZ040-043>046-052-053-057-058-063-144-252300-
INTERIOR CENTRAL FLORIDA

CITY           SKY/WX    TMP DP  RH WIND       PRES   REMARKS
OCALA          SUNNY     61  41  48 SW9       29.97S
THE VILLAGES     N/A     61  45  55 SW12      29.88R
LEESBURG       PTSUNNY   62  43  49 W7        29.97F
SANFORD        PTSUNNY   61  33  35 SW8       29.96F
ORLANDO EXEC   MOSUNNY   62  34  35 SW5       29.97F
ORLANDO INTL   PTSUNNY   64  34  32 SW3       29.97F
KISSIMMEE      SUNNY     64  34  32 CALM      29.98S
WINTER HAVEN   SUNNY     64  39  39 SW3       29.99S
LAKELAND       SUNNY     64  43  45 W7        29.98S
BARTOW         PTSUNNY   63  39  42 NW5       29.99S
OKEECHOBEE     SUNNY     61  43  51 S5        29.99S

$$
FLZ041-047-054-059-064-141-147-252300-
EAST CENTRAL FLORIDA

CITY           SKY/WX    TMP DP  RH WIND       PRES   REMARKS
ORMOND BEACH   SUNNY     61  36  39 SW3       29.96F
DAYTONA BEACH  PTSUNNY   62  37  39 S6        29.96F
DELAND         MOCLDY   N/A N/A N/A SW7       29.97S
NEW SMYRNA BEA SUNNY     59  41  51 E6          N/A
JFK SPACE CTR  SUNNY     63  35  35 SW3       29.96F
TITUSVILLE     PTSUNNY   63  36  36 VRB6      29.98S
CAPE CANAVERAL SUNNY     62  38  42 S6        29.97S
PATRICK AFB    SUNNY     60  38  43 SE6       29.98S
MELBOURNE      SUNNY     61  37  41 E6        29.97F
VERO BEACH     SUNNY     62  39  42 E6        29.98S
FT PIERCE      SUNNY     63  41  44 E6        29.98S
STUART         SUNNY     63  39  42 E5        29.99F

STATION/POSITION SKY/WX   TEMP    WIND        PRES    WAVE   SWELL
                          AIR SEA DIR/SP/G            HT/PER HT/PER
                          (F)     (DEG/KT/KT) (MB)    (FT/S) (FT/S)
28.5N   80.2W              59 71  220/  4/  6 1015.7F
28.9N   78.5W              66 76  260/  6/ 10 1015.3R   4/ 6   5/ 6
TRIDENT PIER               61 65  120/  3/  6 1014.5F
28.4N   80.5W                 65                N/A     1/10
27.6N   80.2W                 73                N/A     3/ 8

$$
FLZ050-056-061-142-242-148-248-149-249-151-251-155-255-
160-260-252300-
WEST CENTRAL FLORIDA

CITY           SKY/WX    TMP DP  RH WIND       PRES   REMARKS
CRYSTAL RIVER  FAIR      59  41  51 W5        29.99R
INVERNESS      FAIR      59  45  58 CALM      29.99S
BROOKSVILLE    CLOUDY    61  47  59 W6        30.00R
ZEPHYRHILLS    FAIR      63  41  45 CALM      29.99S
CLEARWATER     MOSUNNY   63  48  58 W6        30.00R
TAMPA INTL     PTSUNNY   61  46  57 SW7       30.00R
TAMPA EXEC     MOSUNNY   66  45  45 S6        29.99S
PLANT CITY       N/A    N/A N/A N/A MISG        N/A
MACDILL AFB    SUNNY     63  48  58 S8        30.01R
PETER O KNIGHT SUNNY     64  50  59 SW6       30.00R
ST PETERSBURG  SUNNY     60  46  59 S6        29.99R
SARASOTA       SUNNY     61  48  62 W5        30.00R
VENICE         FAIR      61  48  63 W3        30.03R

STATION/POSITION SKY/WX   TEMP    WIND        PRES    WAVE   SWELL
                          AIR SEA DIR/SP/G            HT/PER HT/PER
                          (F)     (DEG/KT/KT) (MB)    (FT/S) (FT/S)
CEDAR KEY                  54     190/  7/  8 1015.8F
28.5N   84.5W              65 69  250/ 14/ 19 1014.9R   3/ 9   2/ 9
27.3N   84.3W                 73                N/A     5/10   2/11
CLEARWATER BEACH           58 64  200/  7/  8 1015.6R
MIDDLE TAMPA BAY           60     240/  9/ 10 1016.1R
VENICE                     61 66  250/  4/  5 1016.1R

$$
FLZ066-069-070-075>078-162-262-165-265-252300-
SOUTHWEST FLORIDA AND KEYS

CITY           SKY/WX    TMP DP  RH WIND       PRES   REMARKS
PUNTA GORDA    SUNNY     65  48  54 W9        30.01R
FT MYERS       MOSUNNY   64  46  52 W8        29.99R
SOUTHWEST INTL MOSUNNY   64  45  49 NW6       30.00R
NAPLES         MOSUNNY   64  50  60 NW6       30.00S
MARCO ISLAND   CLEAR     64  48  55 W6        29.99S
IMMOKALEE      CLEAR    N/A N/A N/A CALM      30.00R
MARATHON       PTSUNNY   65  53  65 NW7       30.01S
KEY WEST NAS   PTSUNNY   66  53  63 N6        30.01S
KEY WEST INTL  MOSUNNY   67  55  65 NE6       30.01S

STATION/POSITION SKY/WX   TEMP    WIND        PRES    WAVE   SWELL
                          AIR SEA DIR/SP/G            HT/PER HT/PER
                          (F)     (DEG/KT/KT) (MB)    (FT/S) (FT/S)
VENICE                     61 66  250/  4/  5 1016.1R
NAPLES                     62 76  310/  4/  5 1016.5S
26.0N   85.6W              68 73  260/ 10/ 16 1016.4R   4/ 9   3/ 9
DRY TORTUGAS               67     360/  4/  6 1015.7F
NW FL BAY                  64     350/ 11/ 13 1016.6R
SAND KEY                   65      20/  6/  7 1016.1F
SOMBRERO KEY               64     330/  8/ 11 1016.7F
LONG KEY                   65 71  320/  8/ 10 1016.8F
MOLASSES REEF              66 75  270/  2/  2 1015.9R

$$
FLZ067-068-071>074-168-172>174-252300-
SOUTHEAST FLORIDA

CITY           SKY/WX    TMP DP  RH WIND       PRES   REMARKS
W PALM BEACH   PTSUNNY   66  31  27 W5        29.98S
FT LAUDER-EXEC PTSUNNY   65  36  34 W7        29.99S
FT LAUDERDALE  CLOUDY    64  38  38 W6        29.98F
POMPANO BEACH  PTSUNNY   68  35  29 NW5       29.99F
PEMBROKE PINES PTSUNNY   65  40  39 CALM      30.00F
OPA LOCKA      PTSUNNY   65  40  39 W6        29.99F
MIAMI          PTSUNNY   66  41  40 NW5       30.00F
WEST KENDALL   PTSUNNY   67  41  38 NW6       30.00F
HOMESTEAD      PTSUNNY   67  42  41 N3        30.00S

STATION/POSITION SKY/WX   TEMP    WIND        PRES    WAVE   SWELL
                          AIR SEA DIR/SP/G            HT/PER HT/PER
                          (F)     (DEG/KT/KT) (MB)    (FT/S) (FT/S)
PORT EVERGLADES            65     180/  2/  4 1015.3
VIRGINIA KEY               66 71  170/  2/  3 1016.0F




U.S. Dept. of Commerce
NOAA National Weather Service
1325 East West Highway
Silver Spring, MD 20910
E-mail: w-nws.webmaster@noaa.gov
Page last modified: May 16, 2007
NATIONAL WEATHER SERVICE: for Safety, for Work, for Fun - FOR LIFE